TimeCST,TemperatureF,Dew PointF,Humidity,Sea Level PressureIn,VisibilityMPH,Wind Direction,Wind SpeedMPH,Gust SpeedMPH,PrecipitationIn,Events,Conditions,WindDirDegrees,DateUTC
12:14 AM,-11.2,-16.6,77,30.26,10.0,Calm,Calm,-,N/A,,Clear,0,2013-01-01 06:14:00
12:34 AM,-11.2,-16.6,77,30.26,10.0,Calm,Calm,-,N/A,,Scattered Clouds,0,2013-01-01 06:34:00
12:53 AM,-11.2,-16.6,77,30.26,10.0,Calm,Calm,-,N/A,,Mostly Cloudy,0,2013-01-01 06:53:00
1:14 AM,-11.2,-16.6,77,30.26,10.0,Calm,Calm,-,N/A,,Scattered Clouds,0,2013-01-01 07:14:00
1:34 AM,-9.4,-14.8,77,30.26,10.0,Calm,Calm,-,N/A,,Mostly Cloudy,0,2013-01-01 07:34:00
1:53 AM,-7.6,-13.0,77,30.26,10.0,Calm,Calm,-,N/A,,Overcast,0,2013-01-01 07:53:00
2:14 AM,-5.8,-9.4,84,30.25,10.0,Calm,Calm,-,N/A,,Overcast,0,2013-01-01 08:14:00
2:34 AM,-2.2,-7.6,78,30.25,10.0,Calm,Calm,-,N/A,Snow,Light Snow,0,2013-01-01 08:34:00
2:53 AM,-2.2,-5.8,85,30.24,10.0,Calm,Calm,-,N/A,Snow,Light Snow,0,2013-01-01 08:53:00
3:13 AM,-0.4,-5.8,78,30.24,10.0,Calm,Calm,-,N/A,Snow,Light Snow,0,2013-01-01 09:13:00
3:33 AM,-0.4,-4.0,85,30.24,10.0,Calm,Calm,-,N/A,Snow,Light Snow,0,2013-01-01 09:33:00
3:53 AM,-0.4,-4.0,85,30.24,10.0,ESE,3.5,-,N/A,Snow,Light Snow,120,2013-01-01 09:53:00
4:13 AM,1.4,-2.2,85,30.23,10.0,SE,3.5,-,N/A,,Overcast,140,2013-01-01 10:13:00
4:33 AM,1.4,-2.2,85,30.22,10.0,Calm,Calm,-,N/A,,Overcast,0,2013-01-01 10:33:00
4:53 AM,3.2,-0.4,85,30.22,10.0,SSE,3.5,-,N/A,,Overcast,150,2013-01-01 10:53:00
5:13 AM,3.2,-0.4,85,30.21,10.0,SSE,4.6,-,N/A,,Overcast,150,2013-01-01 11:13:00
5:33 AM,3.2,-0.4,85,30.20,10.0,SSE,4.6,-,N/A,,Overcast,160,2013-01-01 11:33:00
5:53 AM,3.2,1.4,92,30.20,10.0,SE,4.6,-,N/A,,Overcast,140,2013-01-01 11:53:00
6:14 AM,5.0,1.4,85,30.20,10.0,SE,4.6,-,N/A,,Overcast,140,2013-01-01 12:14:00
6:33 AM,5.0,1.4,85,30.21,10.0,SE,3.5,-,N/A,,Overcast,130,2013-01-01 12:33:00
6:53 AM,5.0,1.4,85,30.20,10.0,SE,4.6,-,N/A,,Overcast,130,2013-01-01 12:53:00
7:14 AM,6.8,3.2,85,30.20,10.0,SE,4.6,-,N/A,,Overcast,130,2013-01-01 13:14:00
7:33 AM,6.8,3.2,85,30.20,10.0,ESE,5.8,-,N/A,,Overcast,110,2013-01-01 13:33:00
7:53 AM,6.8,3.2,85,30.19,10.0,SE,5.8,-,N/A,,Overcast,130,2013-01-01 13:53:00
8:13 AM,6.8,3.2,85,30.19,10.0,SE,6.9,-,N/A,,Overcast,130,2013-01-01 14:13:00
8:34 AM,6.8,3.2,85,30.19,10.0,ESE,4.6,-,N/A,,Overcast,120,2013-01-01 14:34:00
8:53 AM,8.6,3.2,79,30.19,10.0,ESE,4.6,-,N/A,,Overcast,120,2013-01-01 14:53:00
9:13 AM,8.6,3.2,79,30.19,10.0,ESE,4.6,-,N/A,,Overcast,120,2013-01-01 15:13:00
9:33 AM,8.6,5.0,85,30.18,10.0,SE,6.9,-,N/A,,Overcast,130,2013-01-01 15:33:00
9:54 AM,10.4,5.0,79,30.17,10.0,SE,4.6,-,N/A,Snow,Light Snow,140,2013-01-01 15:54:00
10:13 AM,10.4,6.8,85,30.17,10.0,SE,3.5,-,N/A,Snow,Light Snow,140,2013-01-01 16:13:00
10:33 AM,10.4,6.8,85,30.17,10.0,SE,5.8,-,N/A,Snow,Light Snow,140,2013-01-01 16:33:00
10:53 AM,12.2,6.8,79,30.16,10.0,SSE,5.8,-,N/A,,Overcast,150,2013-01-01 16:53:00
11:13 AM,12.2,8.6,85,30.15,10.0,SSE,4.6,-,N/A,,Overcast,160,2013-01-01 17:13:00
11:33 AM,15.8,10.4,79,30.14,10.0,SSE,3.5,-,N/A,,Overcast,160,2013-01-01 17:33:00
11:53 AM,17.6,10.4,73,30.13,10.0,South,5.8,-,N/A,,Overcast,170,2013-01-01 17:53:00
12:13 PM,19.4,14.0,80,30.11,10.0,South,3.5,-,N/A,,Overcast,190,2013-01-01 18:13:00
12:33 PM,21.2,15.8,80,30.11,10.0,SSW,3.5,-,N/A,,Overcast,200,2013-01-01 18:33:00
12:53 PM,24.8,19.4,80,30.10,10.0,WSW,12.7,18.4,N/A,,Overcast,240,2013-01-01 18:53:00
1:14 PM,24.8,19.4,80,30.09,10.0,SW,13.8,-,N/A,,Overcast,230,2013-01-01 19:14:00
1:33 PM,24.8,19.4,80,30.09,10.0,SW,13.8,-,N/A,,Overcast,230,2013-01-01 19:33:00
1:53 PM,24.8,19.4,80,30.08,10.0,WSW,16.1,-,N/A,,Overcast,240,2013-01-01 19:53:00
2:13 PM,24.8,19.4,80,30.08,10.0,WSW,13.8,-,N/A,,Overcast,240,2013-01-01 20:13:00
2:33 PM,24.8,19.4,80,30.08,10.0,WSW,15.0,-,N/A,,Overcast,240,2013-01-01 20:33:00
2:54 PM,24.8,19.4,80,30.07,10.0,WSW,11.5,-,N/A,,Overcast,240,2013-01-01 20:54:00
3:13 PM,24.8,19.4,80,30.08,10.0,SW,10.4,-,N/A,,Overcast,230,2013-01-01 21:13:00
3:33 PM,24.8,19.4,80,30.07,10.0,SW,11.5,-,N/A,,Overcast,230,2013-01-01 21:33:00
3:53 PM,24.8,19.4,80,30.06,10.0,SW,8.1,-,N/A,,Overcast,220,2013-01-01 21:53:00
4:13 PM,24.8,19.4,80,30.06,10.0,SSW,6.9,-,N/A,,Overcast,210,2013-01-01 22:13:00
4:33 PM,23.0,19.4,86,30.06,10.0,SSW,6.9,-,N/A,,Overcast,200,2013-01-01 22:33:00
4:54 PM,23.0,19.4,86,30.05,10.0,South,5.8,-,N/A,,Overcast,190,2013-01-01 22:54:00
5:13 PM,23.0,19.4,86,30.05,10.0,South,4.6,-,N/A,,Overcast,180,2013-01-01 23:13:00
5:33 PM,23.0,19.4,86,30.04,10.0,South,5.8,-,N/A,,Overcast,180,2013-01-01 23:33:00
5:53 PM,23.0,19.4,86,30.04,10.0,South,4.6,-,N/A,,Overcast,190,2013-01-01 23:53:00
6:13 PM,24.8,19.4,80,30.03,10.0,SW,8.1,-,N/A,,Overcast,220,2013-01-02 00:13:00
6:34 PM,24.8,19.4,80,30.02,10.0,WSW,10.4,-,N/A,,Overcast,240,2013-01-02 00:34:00
6:53 PM,24.8,19.4,80,30.02,10.0,SW,10.4,-,N/A,,Overcast,230,2013-01-02 00:53:00
7:13 PM,24.8,19.4,80,30.02,10.0,SW,10.4,-,N/A,,Overcast,220,2013-01-02 01:13:00
7:33 PM,24.8,19.4,80,30.01,10.0,SW,6.9,-,N/A,,Overcast,220,2013-01-02 01:33:00
7:53 PM,24.8,19.4,80,30.01,10.0,SW,8.1,-,N/A,,Overcast,220,2013-01-02 01:53:00
8:14 PM,24.8,19.4,80,30.01,10.0,SW,5.8,-,N/A,,Overcast,220,2013-01-02 02:14:00
8:33 PM,24.8,19.4,80,30.00,10.0,SW,10.4,-,N/A,,Overcast,220,2013-01-02 02:33:00
8:53 PM,23.0,19.4,86,29.99,10.0,SW,9.2,-,N/A,,Overcast,220,2013-01-02 02:53:00
9:13 PM,23.0,19.4,86,29.98,10.0,SSW,9.2,-,N/A,,Overcast,210,2013-01-02 03:13:00
9:33 PM,21.2,17.6,86,29.98,10.0,SW,5.8,-,N/A,,Scattered Clouds,220,2013-01-02 03:33:00
9:54 PM,19.4,15.8,86,29.98,10.0,SSW,4.6,-,N/A,,Clear,200,2013-01-02 03:54:00
10:14 PM,19.4,15.8,86,29.97,10.0,SSW,5.8,-,N/A,,Clear,210,2013-01-02 04:14:00
10:33 PM,17.6,15.8,93,29.97,10.0,SSW,5.8,-,N/A,,Clear,210,2013-01-02 04:33:00
10:54 PM,17.6,14.0,86,29.97,10.0,SSW,5.8,-,N/A,,Clear,200,2013-01-02 04:54:00
11:13 PM,15.8,14.0,93,29.97,10.0,SSW,6.9,-,N/A,,Clear,200,2013-01-02 05:13:00
11:33 PM,15.8,12.2,86,29.97,10.0,SSW,5.8,-,N/A,,Clear,210,2013-01-02 05:33:00
11:53 PM,15.8,12.2,86,29.97,10.0,SW,6.9,-,N/A,,Clear,220,2013-01-02 05:53:00